User: anonymous   Login
Location: Paddlesworth
(51.1000°N, 1.1333°E)
Time: 23:40:21
(UTC+00:00)
Language:

Cosmos 1743 - Orbit

View from above orbital plane
View from above orbital plane
View from above satellite
View from above satellite

Ground track
Ground track

The orbit data is extracted from the following two-line orbital elements,

1 16719U 86034A   21204.48472965  .00000990  00000-0  49609-4 0  9999
2 16719  82.5536 324.1396 0013119 128.9810 349.3895 15.16111615922188
Epoch (UTC): 23 July 2021 11:38:00
Eccentricity: 0.0013119
inclination: 82.5536°
perigee height: 508 km
apogee height: 526 km
right ascension of ascending node: 324.1396°
argument of perigee: 128.9810°
revolutions per day: 15.16111615
mean anomaly at epoch: 349.3895°
orbit number at epoch: 92218

The dashed part of the orbit path shows where the satellite is in the earth's shadow,  

DLR